Find Starlink 34908

NORAD ID: 65329 Int'l Des: 2025-189 Owner: SPXS Country: US Constellation: starlink operational
LEOCIRCULAR

当前视图

正在加载3D地球...

About Starlink 34908

Starlink 34908 (NORAD 65329) is a starlink constellation satellite (v2 mini) launched Aug 27, 2025 by SPXS of US. It operates in LEO, CIRCULAR orbit with a mass of 575.00 kg.

关于 Starlink 34908

正在加载描述...

即将过境

Passes for default location (London). Set your location on the main map for personalized predictions.

高度历史

Loading altitude history...

两行轨道根数

1 65329U 25189G 26194.69478422 .00014931 00000-0 45204-3 0 9990
2 65329 53.1613 341.1173 0001184 83.9973 276.1165 15.34408572 50405
Epoch: Jul 13, 2026 • Age: 17 hours

当前状态

高度 464.3 km
远地点 / 近地点 N/A
速度 7.64 km/s
星下点 -4.90°S, 105.83°W
发射日期 Aug 27, 2025
运行时间 0.8 years
类型 internet

技术详情

分类 Payload
质量 575.00 kg
干质量 530.00 kg
总质量 575.00 kg
长度 0.30 m
直径 4.10 m
跨度 29.00 m
形状 Box + pan
制造商 SPXS
平台类型 Starlink V2MO
阶段状态 In Orbit
所有者/国家 SPXS/US

Most Searched